BREEZE-M R/B, 44626

Orbit data source: Space-Track

BREEZE-M R/B, 44626 is space debris in HEO originally from a launch on Wed, 09 Oct 2019 UTC launched from the Tyuratam Missile And Space Complex (TTMTR). Debris objects in space refer to the collection of defunct objects orbiting the Earth. Examples of debris include non-operational satellites, rocket bodies, and fragments generated from explosions, collisions, or faulty payload assembly.

Loading next visibility...
Identifier
44626, 2019-067C
Orbit
HEO
Last TLE update
2 days ago
Origin
Manufacturer
Khrunichev
Mission
Spacecraft
Bus & Motor
BRIZ, Unknown motor
Mass
~1,600 kg wet, 1,600 kg dry
Launch date (UTC)
2019-10-09 (6 years ago)
Launch vehicle
Unknown
Launch site
Tyuratam Missile And Space Complex (TTMTR)
Object type
Payload
Rocket body
Debris
Shape & HBR
Cyl, 4 m
Radar Cross Section
14.451 m², Large (>1 m²)

Expand to show TLE details & history

TLE from 2 days ago
0 BREEZE-M R/B
1 44626U 19067C   25186.46439118 -.00000202  00000-0  00000-0 0  9998
2 44626  20.7213  70.1535 6565459 355.1071   1.0614  0.93851855 17848
Epoch: 2025-07-05T11:08Z
TLE epoch observation values (Epoch: 2025-07-05T11:08:43.397Z)
Latitude
0.00028°
Longitude
-20.74271°
Altitude
8,745.47 km
Speed
6.608 km/s
True Right ascension
04h 40m 33s
True Declination
0° 00' 01"
Sunlit
Object was in daylight at epoch
Visualization orbit readout
Latitude
-1.63149°
Longitude
163.48587°
Altitude
64,908.138 km
Speed
1.462 km/s
Apparent Right ascension
17h 02m 29s
Apparent Declination
-5° 13' 58"
Sunlit
Object is in daylight
Visualization observer readout
Local Sidereal Time
15:48:07
Azimuth
154.827° SSE
Elevation
41.713°
Doppler factor
1
Orbital elements
Apogee altitude
66,622.892 km
Perigee altitude
8,757.274 km
Semi-major axis
44,068.22 km
Eccentricity
0.65655
Inclination
20.7213°
RAAN
70.1535°
Arg. of periapsis
355.1071°
True anomaly
Unknown
Mean anomaly
1.0614°
Eccentric anomaly
Unknown
Mean motion
0.23461 °/min
Orbital period
1,534.43 mins
BSTAR
0
Loading maneuver chart data...
Loading SW <> Apogee altitude chart data...
Loading historical data...
Loading historical data...
Loading historical data...
Loading historical data...
Loading historical data...
Loading historical data...
Loading historical data...
Other satellites on launch #67 in the year 2019 (2019-10-09 UTC)

BREEZE-M R/B Visibility forecast

Observer location: undefined°, undefined°

Span
Click to sort rows by Start time (UTC) header in descending order
Start Az.
Max El. time (UTC)
Max El. Az.
Max El.
End time (UTC)
End Az.
431 mins2025-07-07 03:47:06.894Z154.832° SSE2025-07-07 04:41:06.894Z169.363° S34.179°2025-07-07 10:58:06.894Z228.627° WSW
63 mins2025-07-07 13:29:06.894Z196.163° SSW2025-07-07 14:05:06.894Z152.935° SSE15.625°2025-07-07 14:32:06.894Z111.203° ESE
358 mins2025-07-07 21:49:06.894Z91.346° ESE2025-07-08 03:47:06.894Z163.6° S35.728°2025-07-08 03:47:06.894Z163.6° S
|